Torna al catalogo

STARLINK-37399

AttivoComunicazioniSSO
NORAD 68772·PAYLOAD·🇺🇸 United States

Lanciato Apr 19, 2026 da Vandenberg Space Force Base

Loading…

Prossimi Passaggi (prossime 24 ore)

TLE

AggiornatoSource: CelesTrak SupGP

Epoca: Sep 14, 2026, 21:45 UTC

1 68772C 26086G   26257.90673611  .00028797  00000+0  89417-3 0  2578
2 68772  97.2843 293.3832 0001180  88.2815 347.1944 15.33416173    14

Traccia STARLINK-37399 in tempo reale con AllMySat

Download on the App Store